DMSP 5D-2 F13 DEB, 40497

Orbit data source: Space-Track

DMSP 5D-2 F13 DEB, 40497 is space debris in SSO originally from a launch on Fri, 24 Mar 1995 UTC launched from the Air Force Western Test Range (AFWTR). Debris objects in space refer to the collection of defunct objects orbiting the Earth. Examples of debris include non-operational satellites, rocket bodies, and fragments generated from explosions, collisions, or faulty payload assembly.

Loading next visibility...
Identifier
40497, 1995-015CL
Orbit
SSO
Country
Flag of USUS
Related business
Manufacturer
Unknown
Mission
Spacecraft
Bus & Motor
Unknown
Mass
Unknown
Launch date (UTC)
1995-03-24 (31 years ago)
Launch vehicle
Unknown
Launch site
Air Force Western Test Range (AFWTR)
Object type
Payload
Rocket body
Debris
Shape & HBR
Unknown shape, 0.1 m
Radar Cross Section
Small (<0.1 m²)

Expand to show TLE details & history
Last TLE update: 2 days ago

TLE from 2 days ago
0 DMSP 5D-2 F13 DEB
1 40497U 95015CL  26069.32041689  .00006213  00000-0  19261-2 0  9993
2 40497  98.6813 109.5664 0002334 265.3282  94.7639 14.41494907571152
Epoch: 2026-03-10T07:41Z
TLE epoch observation values (Epoch: 2026-03-10T07:41:24.019Z)
Latitude
-0.0001°
Longitude
-173.78436°
Altitude
756.647 km
Speed
7.476 km/s
True Right ascension
07h 18m 15s
True Declination
0° 00' 00"
Sunlit
Object was in full shadow at epoch
Visualization orbit readout
Latitude
Unknown
Longitude
Unknown
Altitude
Unknown
Speed
Unknown
Apparent Right ascension
Unknown
Apparent Declination
Unknown
Sunlit
N/A
Visualization observer readout
Local Sidereal Time
21:20:27
Azimuth
Unknown
Elevation
Unknown
Doppler factor
Unknown
Orbital elements
Apogee altitude
752.356 km
Perigee altitude
749.028 km
Semi-major axis
7,128.829 km
Eccentricity
0.00023
Inclination
98.6813°
RAAN
109.5664°
Arg. of periapsis
265.3282°
True anomaly
94.79055°
Mean anomaly
94.7639°
Eccentric anomaly
94.77723°
Mean motion
3.60592 °/min
Orbital period
99.84 mins
BSTAR
0.0019261
Loading maneuver chart data...
Computing Atmospheric mass density...
Loading historical data...
Loading historical data...
Loading historical data...
Loading historical data...
Loading historical data...
Loading historical data...
Loading historical data...

Documentation

Showing up to 5 results
|